Regional Weather Roundup
Issued by NWS

Home | Current Version | Previous Version | Text Only | Print | Product List | Glossary Off
Versions: 1 2 3 4 5 6 7 8 9 10 11 12 13 14 15 16 17 18 19 20 21 22 23 24 25 26 27 28 29 30 31 32 33 34 35 36 37 38 39 40 41 42 43 44 45 46 47 48 49 50

000
ASUS43 KMPX 201001
RWRMN
WEATHER ROUNDUP FOR MINNESOTA
NATIONAL WEATHER SERVICE TWIN CITIES/CHANHASSEN MN
500 AM CDT SUN AUG 20 2017


NOTE: "FAIR" INDICATES FEW OR NO CLOUDS BELOW 12,000 FEET WITH NO
SIGNIFICANT WEATHER AND/OR OBSTRUCTIONS TO VISIBILITY. N/A MEANS
CURRENT SKY AND/OR WEATHER CONDITIONS ARE NOT AVAILABLE.

MNZ060>063-068>070-201100-
   Twin Cities Metro

CITY           SKY/WX    TMP DP  RH WIND       PRES   REMARKS
TWIN CITIES    CLOUDY    67  61  81 SE6       29.87F
ST PAUL        CLOUDY    64  64 100 CALM      29.88F
CRYSTAL        CLOUDY    65  60  84 SE6       29.85F
BLAINE         CLOUDY    66  64  94 CALM      29.87F
LAKEVILLE      CLOUDY    57  57 100 CALM      29.88S FOG
EDEN PRAIRIE   PTCLDY    66  62  87 SE6       29.86F
SOUTH ST PAUL  CLOUDY    64  64  97 CALM      29.88F
LAKE ELMO      FAIR      64  61  88 SE5       29.90S
$$
MNZ001>005-007-008-013>017-022>024-027-028-201100-
   Northwest Minnesota

CITY           SKY/WX    TMP DP  RH WIND       PRES   REMARKS
BEMIDJI        CLEAR     64  61  88 SW7       29.78S
HALLOCK        CLEAR     63  54  72 NW10      29.79R
ROSEAU         CLEAR     64  59  82 W8        29.75R
WARROAD        CLEAR     64  61  88 W8        29.73S
CROOKSTON      CLEAR     61  55  82 NW9       29.80R
FOSSTON        CLEAR     61  57  88 SW3       29.81R
DETROIT LAKES  CLEAR     64  63  94 W8        29.83S
MOORHEAD       CLEAR     61  57  88 NW7       29.85R
PARK RAPIDS    CLEAR     61  59  93 S3        29.81R FOG
MAHNOMEN       FAIR      62  60  94 W7        29.82R
$$
MNZ006-009>011-018-025>026-201100-
   North Central Minnesota

CITY           SKY/WX    TMP DP  RH WIND       PRES   REMARKS
BAUDETTE       CLEAR     62  60  93 SW5       29.72F
FLAG ISLAND    CLEAR     66  61  82 SW3       29.69S
INTL FALLS     CLEAR     61  58  90 CALM      29.74F
WASKISH        PTCLDY    64  61  88 S5        29.76R
BIG FORK       CLEAR     64  61  88 S3        29.79S
LONGVILLE      CLEAR     63  61  94 S5        29.80F
GRAND RAPIDS   CLEAR     62  61  96 S9        29.82F
CRANE LAKE     CLEAR     57  55  94 CALM      29.80F
ORR            CLEAR     59  55  88 SE5       29.77S
COOK           CLEAR     63  61  94 S3        29.81F
WALKER         FAIR      64  61  93 SW8       29.79S
$$
MNZ012-019>021-037-201100-
   Northeast Minnesota

CITY           SKY/WX    TMP DP  RH WIND       PRES   REMARKS
DULUTH         PTCLDY    60  60 100 S5        29.86S
ELY            CLEAR     59  57  94 S3        29.83F
HIBBING        FOG       49  49 100 CALM      29.82F VSB 1/2
EVELETH          N/A     55  53  92 CALM      29.85F FOG
DULUTH HARBOR  MOCLDY    64  61  88 CALM      29.86R
TWO HARBORS    HAZE      57  52  82 CALM      29.85R VSB 1
SILVER BAY     CLEAR     52  52 100 CALM      29.84F FOG
GRAND MARAIS     N/A     57  56  96 CALM      29.84S
$$
MNZ029>031-032-039>041-046>048-054>057-064-201100-
   West Central Minnesota

CITY           SKY/WX    TMP DP  RH WIND       PRES   REMARKS
FERGUS FALLS   CLOUDY    63  63 100 SW7       29.84R
WHEATON        MOCLDY    66  63  88 W5        29.87R
MORRIS         CLOUDY    63  63 100 S6        29.84R FOG
ALEXANDRIA     CLOUDY    66  64  93 W8        29.86R
ELBOW LAKE     FAIR      63  63  99 SW6       29.85R
WADENA         CLOUDY    63  63 100 SW3       29.83R
GLENWOOD       CLOUDY    63  61  94 S7        29.86R FOG
APPLETON       CLOUDY    64  61  88 CALM      29.84R
BENSON         CLOUDY    63  61  94 S5        29.86R
ORTONVILLE     CLEAR     63  61  94 MISG      29.85R
MADISON        CLOUDY    63  63 100 CALM      29.84S FOG
WILLMAR        FAIR      63  63 100 CALM      29.87S FOG
$$
MNZ033>034-036-042>043-049>051-058-059-201100-
   Central Minnesota

CITY           SKY/WX    TMP DP  RH WIND       PRES   REMARKS
ST CLOUD       CLOUDY    62  62 100 SE7       29.85S
SAUK CENTRE    FAIR      60  60 100 SE6       29.85R FOG
PAYNESVILLE    PTCLDY    64  63  97 S3        29.86S
AITKIN         CLEAR     64  61  88 S7        29.82S
PINE RIVER     CLOUDY    57  57 100 CALM      29.86R FOG
BRAINERD       CLEAR     63  61  93 S5        29.82F
STAPLES        CLOUDY    63  63 100 SW3       29.83R
LONG PRAIRIE   FAIR      61  61 100 S5        29.85R
LITTLE FALLS   CLOUDY    61  59  94 S5        29.84S FOG
LITCHFIELD     PTCLDY    66  66 100 CALM      29.86F
BUFFALO        CLOUDY    63  60  90 CALM      29.87F
MAPLE LAKE     CLOUDY    64  63  97 CALM      29.87F
HUTCHINSON     MOCLDY    64  64  97 CALM      29.87S
$$
MNZ037-044-045-052-053-201100-
   East Central Minnesota

CITY           SKY/WX    TMP DP  RH WIND       PRES   REMARKS
PRINCETON      CLOUDY    63  61  94 SE3       29.86S
MORA           CLOUDY    59  59 100 S3        29.89R FOG
CAMBRIDGE      CLOUDY    64  63  94 SE3       29.87S
RUSH CITY      CLOUDY    61  60  96 S6        29.88S
MOOSE LAKE     FOG       55  54  94 CALM      29.84F VSB 1/4
HINCKLEY       FAIR      61  61 100 S3        29.87S
CLOQUET        CLEAR     59  57  94 S5        29.86S FOG
MCGREGOR       CLEAR     61  59  94 S3        29.84S
$$
MNZ071>073-080-081-089-090-097-098-201100-
   Southwest Minnesota

CITY           SKY/WX    TMP DP  RH WIND       PRES   REMARKS
MONTEVIDEO     CLOUDY    63  63 100 S3        29.84S
GRANITE FALLS  PTCLDY    65  64  96 SE7       29.86R
CANBY          CLOUDY    69  63  79 CALM      29.85R
MARSHALL       CLOUDY    65  63  93 S6        29.85R
REDWOOD FALLS  CLOUDY    65  63  93 CALM      29.86R
OLIVIA         CLOUDY    64  63  94 S7        29.85R
PIPESTONE      CLOUDY    66  63  88 CALM      29.88R
WINDOM         CLOUDY    68  63  83 S3        29.87S
WORTHINGTON    CLOUDY    69  63  81 S8        29.87R
JACKSON        CLOUDY    64  61  88 CALM      29.88R
TRACY          CLOUDY    65  64  97 CALM      29.86S
SLAYTON        CLOUDY    62  58  86 S3        29.88R
$$
MNZ065>067-074>077-082>085-091>093-201100-
   South Central Minnesota

CITY           SKY/WX    TMP DP  RH WIND       PRES   REMARKS
MANKATO        CLOUDY    66  64  93 S8        29.88R
NEW ULM        CLOUDY    66  64  94 S5        29.86S
ST JAMES       CLOUDY    66  64  94 S5        29.88R
FAIRMONT       CLOUDY    65  64  97 S7        29.89R
GLENCOE        MOCLDY    66  65  99 CALM      29.86S
FARIBAULT      CLOUDY    66  63  88 S7        29.89S
OWATONNA       CLOUDY    66  63  88 SE12      29.89R
WASECA         CLOUDY    64  61  88 CALM      29.90R
ALBERT LEA     CLOUDY    68  66  94 S6        29.90F
$$
MNZ078>079-086>088-094>096-201100-
   Southeast Minnesota

CITY           SKY/WX    TMP DP  RH WIND       PRES   REMARKS
ROCHESTER      CLOUDY    62  61  96 S8        29.92F
RED WING       CLOUDY    66  61  82 SE6       29.89F
DODGE CENTER   CLOUDY    63  61  94 S7        29.91S
WINONA         CLOUDY    61  61 100 CALM      29.93F
AUSTIN         CLOUDY    64  61  88 S3        29.92R
PRESTON        CLOUDY    61  58  90 S6        29.94S
$$
ABBREVIATIONS USED IN REMARKS
   TC - TEMPERATURES IN CELSIUS
  WCI - WIND CHILL INDEX
   HX - HEAT INDEX
  VSB - VISIBILITY
$$




USA.gov is the U.S. government's official web portal to all federal, state and local government web resources and services.